Flag for Kazakhstan Weather past 2 weeks in Qyzylorda, Kazakhstan

32 °F

Low clouds.

Feels Like: 29 °F
Forecast: 28 / 44 °F
Wind: 3 mph from Northeast

Location: Kzyl-Orda

Current Time: Nov 29, 2015 at 5:14:50 PM

Latest Report: Nov 29, 2015 at 4:30 PM

Visibility: N/A

Pressure: 30.30 "Hg

Humidity: 87%

Dew point: 28 °F

Location of QyzylordaLocation

Historic Weather in Qyzylorda — Graph


Qyzylorda temperature yesterday

Maximum temperature yesterday: 39 °F (at 3:00 PM)
Minimum temperature yesterday: 30 °F (at 8:30 AM)
Average temperature yesterday: 35 °F

Past Weeks' High & Low Weather Summary

High55 °F (Nov 27, 3:00 PM)100% (Nov 15, 7:00 AM)30.51 "Hg (Nov 15, 7:00 AM)
Low25 °F (Nov 25, 6:00 AM)47% (Nov 27, 3:30 PM)29.74 "Hg (Nov 15, 6:00 AM)
Average37 °F85%30.21 "Hg
* Reported Nov 14 3:00 PM — Nov 29 3:30 PM, Qyzylorda, Weather by CustomWeather, © 2015

Note: Actual official high and low records may vary slightly from our data, if they occured in-between our weather recording intervals... More about our weather records


Qyzylorda weather history for previous 24 hours

Time TempWeatherWind HumidityBarometerVisibility
3:30 PM
Sun, Nov 29
30 °FLow clouds.1 mph93%30.30 "HgN/A
3:00 PM32 °FLow clouds.No wind87%30.33 "HgN/A
2:30 PM32 °FLow clouds.No wind87%30.33 "HgN/A
2:00 PM30 °FLow clouds.No wind93%30.33 "HgN/A
1:00 PM30 °FLow clouds.No wind93%30.33 "HgN/A
12:00 PM30 °FLow clouds.No wind93%30.33 "HgN/A
11:00 AM28 °FLow clouds.No wind100%30.33 "HgN/A
10:30 AM30 °FLow clouds.No wind93%30.30 "HgN/A
10:00 AM28 °FLow clouds.No wind100%30.30 "HgN/A
9:30 AM28 °FLow clouds.No wind100%30.30 "HgN/A
9:00 AM28 °FLow clouds.6 mph100%30.27 "HgN/A
8:30 AM28 °FLow clouds.3 mph100%30.27 "HgN/A
8:00 AM28 °FLow clouds.6 mph100%30.27 "HgN/A
7:30 AM28 °FLow clouds.8 mph100%30.27 "HgN/A
7:00 AM30 °FLow clouds.6 mph93%30.24 "HgN/A
6:30 AM30 °FLow clouds.6 mph93%30.24 "HgN/A
6:00 AM30 °FLow clouds.3 mph93%30.21 "HgN/A
5:30 AM30 °FLow clouds.6 mph93%30.21 "HgN/A
5:00 AM30 °FLow clouds.3 mph93%30.21 "HgN/A
4:00 AM30 °FLow clouds.6 mph100%30.21 "HgN/A
3:30 AM32 °FLow clouds.6 mph93%30.21 "HgN/A
2:30 AM34 °FLow clouds.6 mph93%30.18 "HgN/A
2:00 AM34 °FLow clouds.6 mph100%30.18 "HgN/A
1:30 AM34 °FLow clouds.1 mph100%30.18 "HgN/A
1:00 AM34 °FLow clouds.3 mph100%30.15 "HgN/A
12:30 AM34 °FLow clouds.3 mph100%30.15 "HgN/A
12:00 AM34 °FLow clouds.6 mph100%30.15 "HgN/A
11:30 PM
Sat, Nov 28
34 °FLow clouds.6 mph100%30.15 "HgN/A
11:00 PM34 °FDrizzle. Fog.3 mph100%30.15 "Hg3 mi
10:30 PM36 °FDrizzle. Fog.3 mph100%30.12 "Hg2 mi
10:00 PM36 °FDrizzle. Fog.6 mph100%30.12 "Hg2 mi
9:30 PM36 °FFog.6 mph100%30.12 "Hg1 mi
9:00 PM36 °FFog.8 mph100%30.09 "Hg1 mi
8:30 PM37 °FFog.6 mph100%30.09 "Hg1 mi
8:00 PM37 °FFog.3 mph100%30.09 "Hg1 mi
7:30 PM37 °FFog.6 mph100%30.07 "Hg1 mi
7:00 PM39 °FFog.1 mph100%30.07 "Hg1 mi
6:30 PM39 °FFog.No wind100%30.07 "Hg1 mi
6:00 PM37 °FFog.3 mph100%30.07 "Hg1 mi
5:30 PM37 °FFog.3 mph100%30.04 "Hg1 mi
5:00 PM37 °FFog.3 mph100%30.04 "Hg1 mi
Weather by CustomWeather, © 2015

See weather overviewHow to use our weather pages